Погода в Богатых Сабах

Россия / Республика Татарстан     56°00′29″N   50°26′36″E
темп.,
°C
ветер,
м/с
пор.,
м/с
влажн.,
%
обл.,
%
осадки,
мм/ч
давл.,
гПа
погр.,
м
7 марта, вс
вс700:00−14зюз229787 0.1 101227
03:00−16зюз239990 0.2 101126
06:00−17зюз239996 0.1 101023
09:00−15зюз349795 0.1 1010154
12:00−12юз359697 0.0 1009252
15:00−11ююз479598 0.1 1007303
18:00−14ю4996100 0.0 1006216
21:00−10ю71493100 0.1 1003599
8 марта, пн
пн800:00−9ю71494100 0.9 999767
03:00−7ю71494100 2.1 995803
06:00−6ююз61395100 0.9 993687
09:00−6зсз71188100 2.3 994615
12:00−7зюз5108038 0.0 996568
15:00−7юз6108766 0.0 999737
18:00−9ююз3795100 0.0 999163
21:00−9ююз2296100 0.1 99923
9 марта, вт
вт900:00−11з1297100 0.0 99921
03:00−12зсз3396100 0.1 100066
06:00−16зсз349729 0.0 100339
09:00−14з359748 0.0 1005181
12:00−12зсз359499 0.0 1006312
15:00−12зсз359299 0.1 1008495
18:00−14сз379699 0.1 1009208
21:00−18сз479791 0.1 1010134
10 марта, ср
ср1000:00−19сз369989 0.0 101198
03:00−22ссз3510091 0.1 1012100
06:00−24ссз479982 0.0 1013113
09:00−22ссз479689 0.1 1015289
12:00−20ссз5794100 0.0 1016368
15:00−20сз589295 0.0 1016431
18:00−24сз489554 0.0 1018128
21:00−26сз469527 0.0 1019102
11 марта, чт
чт1100:00−25зсз45981 0.0 101994
03:00−25з479925 0.0 1020117
06:00−25з5109984 0.0 1020183
09:00−21з6119791 0.0 1020275
12:00−16з6109395 0.0 1020361
15:00−13з6109196 0.0 1021404
18:00−15з5119788 0.0 1022241
21:00−18з499990 0.0 1023171